Location: Pettit
(39.0209°N, 79.7181°W)
Time: 18:22:33
(UTC+00:00)

ACS3 Solar Sail - Pass Details

Date: 27 April 2026
Orbit: 894 x 947 km, 97.2° (Epoch: 12 May)

Event Time Altitude Azimuth Distance (km) Brightness Sun altitude
Rises 07:11:17 0° 2° (N) 3,564 5.6 -30.7°
Reaches altitude 10° 07:13:52 10° 354° (N) 2,626 4.6 -30.4°
Enters shadow 07:18:20 34° 308° (NW) 1,474 2.7 -30.0°
